Date,TemperatureHighF,TemperatureAvgF,TemperatureLowF,DewpointHighF,DewpointAvgF,DewpointLowF,HumidityHigh,HumidityAvg,HumidityLow,PressureMaxIn,PressureMinIn,WindSpeedMaxMPH,WindSpeedAvgMPH,GustSpeedMaxMPH,PrecipitationSumIn
2013-3-1,44.9,39.3,33.8,32.8,29.1,25.6,86,68,49,29.80,29.63,10,4,15,0.00
2013-3-2,41.5,35.8,30.5,26.0,23.7,22.0,71,61,51,29.81,29.71,11,4,16,0.00
2013-3-3,38.1,32.6,28.8,22.1,19.7,17.4,70,59,48,29.79,29.70,13,5,21,0.00
2013-3-4,42.0,34.2,27.5,21.7,19.2,15.7,65,54,42,29.94,29.79,18,7,25,0.00
2013-3-5,49.2,37.1,29.1,27.4,23.9,20.7,82,60,39,30.03,29.93,10,2,17,0.00
2013-3-6,40.9,38.3,29.0,35.9,32.5,24.4,89,80,73,29.97,29.76,19,9,39,0.26
2013-3-7,40.4,36.3,33.8,34.5,31.3,28.0,91,82,72,30.09,29.89,11,-2,20,0.14
2013-3-8,41.3,34.8,31.1,35.6,31.7,28.8,96,89,70,30.19,30.01,9,3,17,0.29
2013-3-9,56.4,41.7,30.5,30.5,26.4,19.9,83,58,25,30.33,30.18,8,-1,13,0.00
2013-3-10,46.9,37.2,25.9,39.0,32.3,24.0,95,83,68,30.40,30.32,8,2,12,0.00
2013-3-11,56.2,44.2,31.7,48.9,41.2,30.4,98,90,71,30.33,30.10,10,-2,14,0.00
2013-3-12,57.2,53.1,46.0,56.0,50.0,38.9,97,89,76,30.10,29.68,14,5,27,0.69
2013-3-13,49.9,43.0,36.5,39.1,32.3,25.0,87,68,41,29.92,29.82,15,5,23,0.00
2013-3-14,41.5,35.7,30.5,27.3,17.7,11.8,67,49,34,29.99,29.88,20,8,30,0.01
2013-3-15,48.7,38.8,28.9,29.4,21.0,12.0,61,49,39,30.02,29.74,16,2,23,0.00
2013-3-16,43.1,36.2,32.6,32.3,29.4,24.0,95,78,56,29.92,29.78,5,-2,9,0.03
2013-3-17,38.6,33.6,28.8,32.2,24.2,19.1,95,70,49,30.31,29.92,10,2,16,0.16
2013-3-18,38.4,33.7,27.7,37.2,26.3,15.3,96,75,55,30.41,29.96,13,5,21,0.36
2013-3-19,48.7,41.1,37.7,40.6,35.8,19.8,97,83,44,29.96,29.71,14,4,22,0.35
2013-3-20,45.9,38.5,31.7,27.5,21.1,18.2,71,50,33,29.93,29.81,18,6,25,0.00
2013-3-21,38.8,33.5,30.2,29.1,23.3,15.1,87,67,42,29.83,29.65,11,3,17,0.00
2013-3-22,41.3,34.1,27.6,23.0,20.2,14.9,71,57,42,29.92,29.77,17,3,25,0.00
2013-3-23,46.4,38.0,28.8,25.3,22.2,20.1,73,54,38,29.95,29.84,16,2,23,0.00
2013-3-24,46.4,38.1,28.1,27.9,22.6,19.6,72,54,38,29.97,29.71,9,-1,16,0.00
2013-3-25,38.6,35.7,33.3,34.5,31.5,27.7,93,85,70,29.71,29.46,10,3,21,0.59
2013-3-26,49.4,41.9,32.8,35.6,31.5,27.0,93,69,43,29.89,29.60,12,-1,18,0.00
2013-3-27,50.7,42.9,34.7,32.7,28.6,23.4,73,58,35,30.00,29.89,14,5,19,0.00
2013-3-28,48.7,42.8,34.9,32.9,30.1,28.3,79,61,46,30.13,29.99,10,3,15,0.00
2013-3-29,53.4,44.9,36.2,31.9,28.8,25.9,72,54,36,30.17,30.07,12,3,16,0.00
2013-3-30,57.0,45.4,32.2,34.2,26.7,19.4,84,52,24,30.19,30.09,11,2,16,0.00
2013-3-31,55.9,45.1,32.1,46.2,35.3,26.6,94,71,38,30.15,29.69,14,0,19,0.27